Flag for Tunisia Weather past 2 weeks in Tunis, Tunisia

Now
72 °F

Scattered clouds.


Feels Like: 77 °F
Forecast: 62 / 77 °F
Wind: 23 mph from West

Location: Tunis-Carthage

Current Time: Oct 23, 2014 at 2:59:25 PM

Latest Report: Oct 23, 2014 at 2:30 PM


Visibility: N/A

Pressure: 29.92 "Hg

Humidity: 47%

Dew point: 50 °F

Location of TunisLocation

Historic Weather in Tunis — Graph

°F

Tunis temperature yesterday

Maximum temperature yesterday: 79 °F (at 11:30 AM)
Minimum temperature yesterday: 66 °F (at 10:00 PM)
Average temperature yesterday: 72 °F

Past Weeks' High & Low Weather Summary

 TemperatureHumidityPressure
High95 °F (Oct 14, 11:30 AM)100% (Oct 12, 6:30 AM)30.24 "Hg (Oct 12, 6:30 AM)
Low61 °F (Oct 21, 4:00 AM)23% (Oct 14, 2:00 PM)29.71 "Hg (Oct 14, 8:00 PM)
Average76 °F69%30.02 "Hg
* Reported Oct 8 2:00 PM — Oct 23 2:03 PM, Tunis, Weather by CustomWeather, © 2014

Note: Actual official high and low records may vary slightly from our data, if they occured in-between our weather recording intervals... More about our weather records

Advertising

Tunis weather history for previous 24 hours

 ConditionsComfort  
Time TempWeatherWind HumidityBarometerVisibility
2:03 PM
Oct 23
72 °FScattered clouds.24 mph47%29.92 "HgN/A
2:00 PM72 °FScattered clouds.25 mph47%29.92 "HgN/A
1:30 PM72 °FScattered clouds.22 mph47%29.92 "HgN/A
1:00 PM73 °FScattered clouds.21 mph41%29.92 "HgN/A
12:30 PM72 °FScattered clouds.20 mph44%29.95 "HgN/A
12:00 PM72 °FScattered clouds.22 mph47%29.95 "HgN/A
11:30 AM70 °FScattered clouds.22 mph43%29.98 "HgN/A
11:00 AM72 °FPartly sunny.18 mph41%29.98 "HgN/A
10:30 AM70 °FPartly sunny.18 mph46%29.98 "HgN/A
10:00 AM70 °FPartly sunny.17 mph46%30.01 "HgN/A
9:30 AM70 °FScattered clouds.20 mph46%30.01 "HgN/A
9:00 AM70 °FScattered clouds.18 mph46%29.98 "HgN/A
8:30 AM68 °FScattered clouds.12 mph49%29.98 "HgN/A
8:00 AM66 °FScattered clouds.10 mph52%29.98 "HgN/A
7:30 AM64 °FScattered clouds.12 mph56%29.98 "HgN/A
7:00 AM64 °FScattered clouds.13 mph56%29.98 "HgN/A
6:30 AM64 °FPassing clouds.13 mph56%29.98 "HgN/A
6:00 AM64 °FPassing clouds.14 mph56%29.98 "HgN/A
5:30 AM64 °FPassing clouds.17 mph56%29.95 "HgN/A
4:30 AM64 °FPassing clouds.13 mph60%29.98 "HgN/A
3:30 AM66 °FPassing clouds.15 mph52%29.98 "Hg5 mi
3:00 AM64 °FPassing clouds.17 mph60%29.98 "Hg5 mi
2:30 AM66 °FPassing clouds.15 mph52%29.98 "Hg5 mi
2:00 AM66 °FPassing clouds.14 mph52%29.98 "Hg5 mi
1:30 AM66 °FPassing clouds.17 mph56%29.98 "Hg5 mi
1:00 AM66 °FPassing clouds.16 mph56%29.98 "Hg5 mi
12:30 AM66 °FPassing clouds.22 mph56%29.98 "Hg5 mi
12:00 AM66 °FPassing clouds.20 mph56%29.98 "Hg5 mi
11:30 PM
Oct 22
66 °FPassing clouds.22 mph56%29.98 "Hg5 mi
11:00 PM66 °FLight rain. Passing clouds.23 mph60%29.98 "Hg5 mi
10:30 PM66 °FPassing clouds.22 mph60%29.98 "Hg5 mi
10:00 PM66 °FLight rain. Passing clouds.29 mph64%29.95 "Hg5 mi
9:04 PM68 °FStrong thunderstorms. Passing clouds.25 mph53%29.95 "Hg5 mi
9:00 PM68 °FPassing clouds.25 mph56%29.95 "Hg5 mi
8:30 PM68 °FPassing clouds.30 mph56%29.92 "Hg5 mi
8:00 PM68 °FStrong thunderstorms. Passing clouds.25 mph53%29.95 "Hg5 mi
7:30 PM68 °FPassing clouds.17 mph56%29.92 "Hg5 mi
7:00 PM68 °FPassing clouds.17 mph56%29.95 "Hg5 mi
6:30 PM68 °FPassing clouds.21 mph56%29.95 "Hg5 mi
6:00 PM68 °FPassing clouds.18 mph56%29.92 "Hg5 mi
5:30 PM70 °FScattered clouds.18 mph53%29.92 "Hg5 mi
5:00 PM70 °FScattered clouds.28 mph53%29.92 "Hg5 mi
4:30 PM72 °FPassing clouds.26 mph50%29.92 "HgN/A
4:00 PM72 °FPassing clouds.28 mph50%29.92 "HgN/A
3:00 PM73 °FStrong thunderstorms. Passing clouds.24 mph47%29.92 "HgN/A
2:00 PM77 °FScattered clouds.29 mph44%29.92 "HgN/A
Weather by CustomWeather, © 2014

See weather overviewHow to use our weather pages